GW1076 Weather Reports


Display with metric or nautical units.
time (UTC)temp
F
wind
direction
speed
MPH
gust
MPH
rain 1hr
in
rain 24hr
in
rain mn
in
humidity
%
barometer
mb
20260509201542 88 146 6.0 11.0 0.00 0.15 0.15 47 1009.4
20260509201032 88 124 3.0 9.0 0.00 0.15 0.15 47 1009.5
20260509200534 88 120 3.0 10.0 0.00 0.15 0.15 48 1009.5
20260509200056 88 208 6.0 10.0 0.00 0.15 0.15 46 1009.6
20260509195538 88 198 2.0 9.0 0.00 0.15 0.15 47 1009.6
20260509195032 88 195 5.0 13.0 0.00 0.15 0.15 47 1009.6
20260509194546 88 183 5.0 13.0 0.00 0.15 0.15 49 1009.7
20260509194032 88 157 7.0 13.0 0.00 0.15 0.15 49 1009.7
20260509193533 88 244 4.0 9.0 0.00 0.15 0.15 48 1009.8
20260509193038 88 186 4.0 8.0 0.00 0.15 0.15 52 1009.8
20260509192534 88 213 4.0 6.0 0.00 0.15 0.15 52 1009.9
20260509192035 87 233 2.0 7.0 0.00 0.15 0.15 52 1009.9
20260509191547 87 131 4.0 7.0 0.00 0.15 0.15 51 1009.9
20260509191033 87 256 3.0 5.0 0.00 0.15 0.15 52 1010.1
20260509190532 86 316 1.0 6.0 0.00 0.15 0.15 52 1010.1
20260509190057 86 116 2.0 6.0 0.00 0.15 0.15 55 1010.2
20260509185533 86 83 4.0 7.0 0.00 0.15 0.15 52 1010.3
20260509185035 87 184 3.0 7.0 0.00 0.15 0.15 53 1010.3
20260509184558 87 143 3.0 8.0 0.00 0.15 0.15 54 1010.3
20260509184032 86 235 0.0 8.0 0.00 0.15 0.15 55 1010.5
20260509183532 86 180 1.0 7.0 0.00 0.15 0.15 56 1010.5
20260509183039 86 68 1.0 4.0 0.00 0.15 0.15 55 1010.6
20260509182532 85 141 2.0 6.0 0.00 0.15 0.15 56 1010.6
20260509182032 85 329 2.0 6.0 0.00 0.15 0.15 60 1010.7
20260509181545 84 285 2.0 4.0 0.00 0.15 0.15 58 1010.7
20260509181032 84 115 2.0 6.0 0.00 0.15 0.15 59 1010.8
20260509180534 84 100 1.0 6.0 0.00 0.15 0.15 58 1010.9
20260509180045 84 259 2.0 6.0 0.00 0.15 0.15 57 1011.0
20260509175536 84 147 1.0 4.0 0.00 0.15 0.15 61 1011.1
20260509175032 84 69 1.0 5.0 0.00 0.15 0.15 60 1011.1
20260509174543 84 37 1.0 6.0 0.00 0.15 0.15 63 1011.3
20260509174035 84 37 3.0 6.0 0.00 0.15 0.15 58 1011.3
20260509173536 83 207 2.0 5.0 0.00 0.15 0.15 61 1011.4
20260509173039 83 177 2.0 6.0 0.00 0.15 0.15 60 1011.4
20260509172534 83 0 3.0 9.0 0.00 0.15 0.15 61 1011.4
20260509172033 82 247 4.0 9.0 0.00 0.15 0.15 61 1011.4
20260509171540 82 271 3.0 7.0 0.00 0.15 0.15 62 1011.4
20260509171032 82 291 3.0 8.0 0.00 0.15 0.15 64 1011.5
20260509170532 82 270 3.0 8.0 0.00 0.15 0.15 70 1011.5
20260509170038 81 224 2.0 7.0 0.00 0.15 0.15 67 1011.5
20260509165532 81 278 2.0 5.0 0.00 0.15 0.15 70 1011.6
20260509165032 81 291 3.0 7.0 0.00 0.15 0.15 74 1011.5
20260509164544 80 337 3.0 7.0 0.00 0.15 0.15 71 1011.6
20260509164036 80 270 3.0 6.0 0.00 0.15 0.15 72 1011.7
20260509163532 80 284 3.0 7.0 0.00 0.15 0.15 70 1011.7
20260509163049 79 335 4.0 10.0 0.00 0.15 0.15 71 1011.8
20260509162539 79 268 6.0 10.0 0.00 0.15 0.15 74 1011.8
20260509162035 79 265 6.0 10.0 0.00 0.15 0.15 73 1011.8
20260509161539 79 262 5.0 9.0 0.00 0.15 0.15 72 1011.8
20260509161033 79 273 5.0 10.0 0.00 0.15 0.15 72 1012.0
20260509160533 79 299 5.0 13.0 0.00 0.15 0.15 74 1011.9
20260509160039 78 306 7.0 13.0 0.00 0.15 0.15 73 1011.9
20260509155538 78 278 4.0 7.0 0.00 0.15 0.15 75 1011.9
20260509155034 78 236 3.0 7.0 0.00 0.15 0.15 75 1011.9
20260509154550 77 276 3.0 6.0 0.00 0.15 0.15 76 1011.9
20260509154033 77 288 2.0 6.0 0.00 0.15 0.15 75 1011.9
20260509153535 77 298 3.0 8.0 0.00 0.15 0.15 75 1012.0
20260509153047 76 321 3.0 10.0 0.00 0.15 0.15 77 1011.9
20260509152532 76 290 3.0 10.0 0.00 0.15 0.15 77 1011.9
20260509152033 75 293 5.0 10.0 0.00 0.15 0.15 75 1011.9
20260509151554 75 276 4.0 8.0 0.00 0.15 0.15 76 1011.9
20260509151036 75 290 2.0 6.0 0.00 0.15 0.15 76 1011.8
20260509150535 75 295 1.0 4.0 0.00 0.15 0.15 76 1011.9
20260509150042 74 300 2.0 4.0 0.00 0.15 0.15 77 1011.9
20260509145533 74 341 1.0 5.0 0.00 0.15 0.15 77 1012.0
20260509145034 74 278 3.0 5.0 0.00 0.15 0.15 77 1012.0
20260509144547 74 0 0.0 3.0 0.00 0.15 0.15 78 1012.1
20260509144034 73 357 0.0 3.0 0.00 0.15 0.15 77 1012.1
20260509143534 72 52 0.0 3.0 0.00 0.15 0.15 79 1012.1
20260509143054 71 322 2.0 4.0 0.00 0.15 0.15 80 1012.1
20260509142532 71 319 2.0 4.0 0.00 0.15 0.15 82 1012.0
20260509142032 71 353 1.0 6.0 0.00 0.15 0.15 84 1012.0
20260509141558 70 8 3.0 6.0 0.00 0.15 0.15 83 1012.0
20260509141033 70 347 2.0 4.0 0.00 0.15 0.15 83 1012.1
20260509140532 69 333 2.0 4.0 0.00 0.15 0.15 83 1012.1
20260509140054 69 323 2.0 6.0 0.00 0.15 0.15 84 1012.0
20260509135533 69 332 1.0 6.0 0.00 0.15 0.15 84 1012.0
20260509135036 69 316 3.0 6.0 0.00 0.15 0.15 84 1012.0
20260509134550 68 352 4.0 6.0 0.00 0.15 0.15 85 1011.9
20260509134032 68 35 2.0 6.0 0.00 0.15 0.15 86 1011.8
20260509133532 67 350 3.0 6.0 0.00 0.15 0.15 87 1011.8
20260509133047 66 351 3.0 4.0 0.00 0.15 0.15 89 1011.7
20260509132533 65 4 1.0 2.0 0.00 0.15 0.15 90 1011.6
20260509132034 65 313 0.0 1.0 0.00 0.15 0.15 90 1011.5
20260509131545 64 0 0.0 1.0 0.00 0.15 0.15 90 1011.6
20260509131032 64 0 0.0 2.0 0.00 0.15 0.15 91 1011.4
20260509130537 64 0 0.0 2.0 0.00 0.15 0.15 92 1011.3
20260509130043 63 358 0.0 1.0 0.00 0.15 0.15 92 1011.2
20260509125533 63 302 0.0 1.0 0.00 0.15 0.15 93 1011.1
20260509125033 62 0 0.0 1.0 0.00 0.15 0.15 93 1011.0
20260509124548 62 0 0.0 1.0 0.00 0.15 0.15 93 1011.0
20260509124033 62 0 0.0 2.0 0.00 0.15 0.15 93 1010.8
20260509123533 62 0 0.0 3.0 0.00 0.15 0.15 93 1010.8
20260509123052 62 27 0.0 3.0 0.00 0.15 0.15 93 1010.6
20260509122533 62 27 2.0 4.0 0.00 0.15 0.15 92 1010.5
20260509122034 62 349 1.0 4.0 0.00 0.15 0.15 92 1010.4
20260509121547 62 345 2.0 4.0 0.00 0.15 0.15 92 1010.3
20260509121032 62 15 1.0 3.0 0.00 0.15 0.15 92 1010.3
20260509120534 62 1 2.0 3.0 0.00 0.15 0.15 91 1010.2
20260509120049 62 8 2.0 3.0 0.00 0.15 0.15 91 1010.1
20260509115533 62 7 2.0 3.0 0.00 0.15 0.15 91 1010.1
20260509115033 62 343 1.0 4.0 0.00 0.15 0.15 91 1010.0
20260509114549 62 316 1.0 4.0 0.00 0.15 0.15 90 1010.0
20260509114033 62 346 1.0 5.0 0.00 0.15 0.15 90 1010.0
20260509113533 63 332 1.0 5.0 0.00 0.15 0.15 89 1010.0
20260509113100 63 339 3.0 5.0 0.00 0.15 0.15 88 1010.0
20260509112533 63 304 2.0 5.0 0.00 0.15 0.15 87 1010.0
20260509112033 64 345 2.0 4.0 0.00 0.15 0.15 86 1009.9
20260509111547 64 1 2.0 4.0 0.00 0.15 0.15 86 1009.9
20260509111033 64 303 2.0 6.0 0.00 0.15 0.15 86 1009.8
20260509110533 64 323 3.0 10.0 0.00 0.15 0.15 87 1009.6
20260509110042 64 326 5.0 10.0 0.00 0.15 0.15 87 1009.7
20260509105532 64 297 6.0 10.0 0.00 0.15 0.15 87 1009.4
20260509105033 64 321 3.0 6.0 0.00 0.15 0.15 86 1009.2
20260509104556 65 309 2.0 4.0 0.00 0.15 0.15 86 1008.8
20260509104032 66 301 0.0 3.0 0.00 0.15 0.15 84 1008.6
20260509103533 66 0 0.0 6.0 0.00 0.15 0.15 87 1008.3
20260509103057 65 0 2.0 7.0 0.00 0.15 0.15 88 1008.1
20260509102532 65 54 4.0 7.0 0.00 0.15 0.15 91 1008.0
20260509102033 64 70 4.0 7.0 0.00 0.15 0.15 95 1008.1
20260509101539 63 127 3.0 7.0 0.00 0.15 0.15 97 1008.4
20260509101033 63 148 4.0 7.0 0.00 0.15 0.15 98 1008.5
20260509100532 63 184 4.0 6.0 0.00 0.15 0.15 98 1008.2
20260509100105 63 210 2.0 6.0 0.00 0.15 0.15 98 1008.6
20260509095533 62 141 2.0 6.0 0.00 0.15 0.15 98 1008.9
20260509095034 62 0 2.0 6.0 0.00 0.15 0.15 98 1009.1
20260509094549 62 105 1.0 4.0 0.00 0.15 0.15 98 1009.3
20260509094033 62 261 2.0 8.0 0.00 0.15 0.15 98 1009.8
20260509093535 62 0 5.0 10.0 0.00 0.15 0.15 98 1010.2
20260509093045 62 57 8.0 12.0 0.00 0.15 0.15 98 1010.3
20260509092531 62 72 4.0 17.0 0.00 0.15 0.15 98 1010.1
20260509092032 62 241 7.0 17.0 0.00 0.15 0.15 98 1010.2
20260509091541 61 230 8.0 17.0 0.00 0.15 0.15 98 1009.6
20260509091032 61 289 9.0 19.0 0.00 0.15 0.15 98 1009.4
20260509090533 62 245 10.0 19.0 0.01 0.15 0.15 98 1009.9
20260509090045 61 186 12.0 18.0 0.01 0.15 0.15 98 1009.2
20260509085534 61 169 10.0 16.0 0.01 0.15 0.15 98 1009.9
20260509085032 61 153 8.0 12.0 0.02 0.15 0.15 98 1010.4
20260509084546 61 172 4.0 10.0 0.03 0.15 0.15 98 1010.9
20260509084033 61 136 3.0 11.0 0.06 0.15 0.15 97 1010.8
20260509083534 61 168 5.0 11.0 0.10 0.15 0.15 97 1010.9
20260509083045 61 199 3.0 8.0 0.13 0.15 0.15 97 1011.0
20260509082532 61 252 4.0 7.0 0.14 0.15 0.15 97 1011.2
20260509082033 62 152 4.0 7.0 0.15 0.15 0.15 97 1011.1
20260509081541 62 182 3.0 8.0 0.15 0.15 0.15 97 1011.6
20260509081033 62 150 5.0 8.0 0.15 0.15 0.15 97 1011.4
20260509080534 63 134 6.0 10.0 0.14 0.14 0.14 97 1011.6
20260509080045 63 141 6.0 10.0 0.14 0.14 0.14 97 1011.9
20260509075532 63 131 4.0 8.0 0.14 0.14 0.14 97 1012.2
20260509075032 63 96 4.0 8.0 0.13 0.13 0.13 96 1012.2
20260509074545 63 80 5.0 11.0 0.12 0.12 0.12 95 1012.6
20260509074035 65 48 5.0 16.0 0.09 0.09 0.09 91 1012.9
20260509073532 66 51 7.0 16.0 0.04 0.04 0.04 90 1012.7
20260509073048 67 65 9.0 16.0 0.02 0.02 0.02 91 1012.4
20260509072533 67 60 5.0 11.0 0.01 0.01 0.01 94 1012.6
20260509072032 67 63 6.0 18.0 0.00 0.00 0.00 95 1012.5
20260509071542 67 51 10.0 18.0 0.00 0.00 0.00 95 1012.5
20260509071033 66 15 7.0 13.0 0.00 0.00 0.00 97 1012.7
20260509070533 65 18 7.0 9.0 0.00 0.00 0.00 97 1012.8
20260509070041 65 26 5.0 8.0 0.00 0.00 0.00 97 1012.7
20260509065532 65 11 5.0 14.0 0.00 0.00 0.00 97 1012.9
20260509065032 65 35 7.0 14.0 0.00 0.00 0.00 97 1012.8
20260509064540 64 15 8.0 11.0 0.00 0.00 0.00 97 1012.7
20260509064033 64 20 5.0 7.0 0.00 0.00 0.00 97 1012.1
20260509063533 64 12 5.0 7.0 0.00 0.00 0.00 97 1011.7
20260509063054 64 1 2.0 3.0 0.00 0.00 0.00 96 1010.8
20260509062533 64 41 1.0 3.0 0.00 0.00 0.00 96 1010.0
20260509062032 64 0 0.0 2.0 0.00 0.00 0.00 96 1009.8
20260509061556 64 0 0.0 2.0 0.00 0.00 0.00 96 1009.8
20260509061033 64 0 0.0 0.0 0.00 0.00 0.00 96 1009.9
20260509060533 64 0 0.0 0.0 0.00 0.00 0.00 95 1009.9
20260509060044 64 0 0.0 2.0 0.00 0.00 0.00 95 1010.0
20260509055537 64 0 1.0 2.0 0.00 0.00 0.00 95 1010.0
20260509055032 64 101 1.0 2.0 0.00 0.00 0.00 95 1009.9
20260509054551 65 116 1.0 3.0 0.00 0.00 0.00 95 1009.8
20260509054032 65 143 1.0 3.0 0.00 0.00 0.00 95 1009.9
20260509053533 65 139 1.0 5.0 0.00 0.00 0.00 95 1010.0
20260509053059 65 165 1.0 5.0 0.00 0.00 0.00 95 1010.1
20260509052533 65 135 3.0 5.0 0.00 0.00 0.00 95 1010.1
20260509052032 65 142 2.0 5.0 0.00 0.00 0.00 95 1010.2
20260509051549 65 162 2.0 5.0 0.00 0.00 0.00 95 1010.1
20260509051034 66 168 3.0 6.0 0.00 0.00 0.00 95 1010.1
20260509050533 66 163 3.0 7.0 0.00 0.00 0.00 95 1010.1
20260509050050 66 195 3.0 7.0 0.00 0.00 0.00 95 1010.0
20260509045533 66 148 4.0 7.0 0.00 0.00 0.00 95 1010.0
20260509045033 65 132 2.0 6.0 0.00 0.00 0.00 95 1010.0
20260509044547 66 125 3.0 6.0 0.00 0.00 0.00 94 1009.9
20260509044035 66 148 3.0 5.0 0.00 0.00 0.00 95 1009.9
20260509043532 66 127 2.0 5.0 0.00 0.00 0.00 95 1010.0
20260509043046 66 141 2.0 3.0 0.00 0.00 0.00 94 1010.2
20260509042533 66 129 1.0 2.0 0.00 0.00 0.00 94 1010.3
20260509042037 66 127 0.0 2.0 0.00 0.00 0.00 94 1010.4
20260509041548 66 101 1.0 2.0 0.00 0.00 0.00 93 1010.4
20260509041034 66 110 1.0 2.0 0.00 0.00 0.00 93 1010.3
20260509040532 66 123 0.0 2.0 0.00 0.00 0.00 93 1010.2
20260509040042 66 125 0.0 4.0 0.00 0.00 0.00 93 1010.1
20260509035532 67 125 1.0 4.0 0.00 0.00 0.00 92 1010.1
20260509035033 67 145 3.0 4.0 0.00 0.00 0.00 93 1010.0
20260509034550 67 158 3.0 4.0 0.00 0.00 0.00 93 1009.9
20260509034034 67 156 1.0 3.0 0.00 0.00 0.00 92 1009.8
20260509033534 67 141 2.0 3.0 0.00 0.00 0.00 92 1009.9
20260509033045 67 131 2.0 3.0 0.00 0.00 0.00 91 1009.8
20260509032533 68 146 1.0 3.0 0.00 0.00 0.00 92 1009.8
20260509032032 68 167 2.0 3.0 0.00 0.00 0.00 91 1009.8
20260509031545 68 136 2.0 3.0 0.00 0.00 0.00 91 1009.7
20260509031034 68 138 1.0 4.0 0.00 0.00 0.00 91 1009.8
20260509030534 68 168 1.0 5.0 0.00 0.00 0.00 90 1009.6
20260509030049 68 121 3.0 5.0 0.00 0.00 0.00 90 1009.6
20260509025533 69 134 2.0 5.0 0.00 0.00 0.00 89 1009.4
20260509025032 69 158 3.0 5.0 0.00 0.00 0.00 89 1009.4
20260509024539 69 155 1.0 5.0 0.00 0.00 0.00 89 1009.5
20260509024033 69 150 3.0 5.0 0.00 0.00 0.00 89 1009.5
20260509023533 69 135 2.0 3.0 0.00 0.00 0.00 89 1009.6
20260509023039 69 134 2.0 3.0 0.00 0.00 0.00 88 1009.6
20260509022533 70 117 2.0 4.0 0.00 0.00 0.00 87 1009.4
20260509022032 70 133 2.0 5.0 0.00 0.00 0.00 87 1009.4
20260509021548 70 108 3.0 6.0 0.00 0.00 0.00 86 1009.3
20260509021032 71 98 4.0 6.0 0.00 0.00 0.00 86 1009.3
20260509020533 71 107 3.0 5.0 0.00 0.00 0.00 86 1009.2
20260509020044 71 122 3.0 5.0 0.00 0.00 0.00 86 1009.1
20260509015533 71 122 3.0 6.0 0.00 0.00 0.00 85 1009.0
20260509015033 71 123 3.0 6.0 0.00 0.00 0.00 85 1008.9
20260509014542 71 99 3.0 7.0 0.00 0.00 0.00 85 1008.9
20260509014035 72 129 4.0 8.0 0.00 0.00 0.00 84 1008.7
20260509013532 72 138 5.0 8.0 0.00 0.00 0.00 84 1008.6
20260509013039 72 133 4.0 6.0 0.00 0.00 0.00 84 1008.6
20260509012535 72 132 4.0 7.0 0.00 0.00 0.00 84 1008.5
20260509012033 72 138 4.0 7.0 0.00 0.00 0.00 83 1008.4
20260509011545 72 109 4.0 9.0 0.00 0.00 0.00 83 1008.5
20260509011033 72 134 5.0 9.0 0.00 0.00 0.00 83 1008.5
20260509010532 72 149 4.0 9.0 0.00 0.00 0.00 83 1008.3
20260509010046 72 115 5.0 9.0 0.00 0.00 0.00 83 1008.2
20260509005534 72 134 5.0 7.0 0.00 0.00 0.00 83 1008.2
20260509005032 72 120 2.0 6.0 0.00 0.00 0.00 82 1008.3
20260509004540 73 143 3.0 8.0 0.00 0.00 0.00 81 1008.3
20260509004032 73 136 4.0 8.0 0.00 0.00 0.00 80 1008.2
20260509003532 74 139 5.0 8.0 0.00 0.00 0.00 79 1008.2
20260509003044 74 149 5.0 9.0 0.00 0.00 0.00 79 1008.2
20260509002534 74 141 5.0 10.0 0.00 0.00 0.00 79 1008.2
20260509002032 75 150 7.0 10.0 0.00 0.00 0.00 78 1008.3
20260509001542 75 139 5.0 10.0 0.00 0.00 0.00 79 1008.3
20260509001033 75 100 6.0 12.0 0.00 0.00 0.00 79 1008.1
20260509000531 75 141 8.0 12.0 0.00 0.00 0.00 78 1008.2
20260509000039 75 146 9.0 12.0 0.00 0.00 0.00 78 1008.1
20260508235534 75 131 5.0 11.0 0.00 0.00 0.00 78 1008.2
20260508235032 75 148 5.0 11.0 0.00 0.00 0.00 78 1008.2
20260508234553 76 145 6.0 11.0 0.00 0.00 0.00 77 1008.2
20260508234033 75 113 7.0 11.0 0.00 0.00 0.00 77 1008.2
20260508233537 76 172 6.0 13.0 0.00 0.00 0.00 78 1008.3
20260508233039 75 148 8.0 13.0 0.00 0.00 0.00 77 1008.2
20260508232532 75 121 7.0 11.0 0.00 0.00 0.00 78 1008.1
20260508232037 75 210 8.0 11.0 0.00 0.00 0.00 78 1008.1
20260508231621 74 140 7.0 12.0 0.00 0.00 0.00 79 1008.2
20260508231032 74 142 6.0 13.0 0.00 0.00 0.00 78 1008.3
20260508230534 75 170 6.0 13.0 0.00 0.00 0.00 78 1008.3
20260508230056 75 214 7.0 13.0 0.00 0.00 0.00 78 1008.3
20260508225535 75 133 4.0 9.0 0.00 0.00 0.00 78 1008.5
20260508225034 74 128 6.0 9.0 0.00 0.00 0.00 78 1008.5
20260508224542 75 142 6.0 9.0 0.00 0.00 0.00 77 1008.4
20260508224034 75 138 4.0 11.0 0.00 0.00 0.00 78 1008.4
20260508223533 75 181 6.0 11.0 0.00 0.00 0.00 76 1008.5
20260508223044 75 145 7.0 11.0 0.00 0.00 0.00 76 1008.5
20260508222532 75 122 6.0 13.0 0.00 0.00 0.00 77 1008.4
20260508222031 75 145 8.0 13.0 0.00 0.00 0.00 78 1008.4
20260508221548 74 122 8.0 12.0 0.00 0.00 0.00 77 1008.3
20260508221034 75 122 8.0 13.0 0.00 0.00 0.00 77 1008.4
20260508220533 75 141 9.0 13.0 0.00 0.00 0.00 77 1008.4
20260508220044 75 159 7.0 13.0 0.00 0.00 0.00 77 1008.4
20260508215534 75 143 8.0 14.0 0.00 0.00 0.00 77 1008.5
20260508215032 74 139 9.0 14.0 0.00 0.00 0.00 78 1008.6
20260508214618 74 136 9.0 13.0 0.00 0.00 0.00 79 1008.7
20260508214034 73 144 9.0 13.0 0.00 0.00 0.00 79 1008.7
20260508213533 73 115 8.0 13.0 0.00 0.00 0.00 79 1008.9
20260508213052 73 141 9.0 13.0 0.00 0.00 0.00 79 1009.0
20260508212533 73 139 9.0 13.0 0.00 0.00 0.00 78 1009.1
20260508212036 73 116 9.0 13.0 0.00 0.00 0.00 78 1009.1
20260508211550 74 117 7.0 14.0 0.00 0.00 0.00 78 1009.1
20260508211032 73 127 9.0 14.0 0.00 0.00 0.00 78 1009.3
20260508210536 73 188 8.0 13.0 0.00 0.00 0.00 78 1009.3
20260508210054 73 140 8.0 13.0 0.00 0.00 0.00 77 1009.5
20260508205532 74 124 7.0 13.0 0.00 0.00 0.00 76 1009.5
20260508205034 75 132 8.0 13.0 0.00 0.00 0.00 74 1009.7
20260508204546 76 172 8.0 12.0 0.00 0.00 0.00 75 1009.8
20260508204036 75 151 7.0 12.0 0.00 0.00 0.00 75 1009.7
20260508203535 75 162 8.0 14.0 0.00 0.00 0.00 76 1009.8
20260508203056 74 134 7.0 14.0 0.00 0.00 0.00 76 1009.8
20260508202532 75 128 8.0 12.0 0.00 0.00 0.00 75 1009.9
20260508202032 76 156 5.0 12.0 0.00 0.00 0.00 74 1009.9